Location: Ferintosh
(52.7647°N, 112.9692°W)
Time: 13:35:26
(UTC+00:00)

Transit 2A Rocket - Pass Details

Date: 28 May 2024
Orbit: 583 x 910 km, 66.7° (Epoch: 14 June)

Event Time Altitude Azimuth Distance (km) Brightness Sun altitude
Rises 09:08:28 0° 176° (S) 3,002 - -12.6°
Exits shadow 09:10:56 10° 163° (SSE) 2,177 6.9 -12.4°
Reaches altitude 10° 09:11:02 10° 162° (SSE) 2,147 6.9 -12.4°
Maximum altitude 09:14:55 24° 110° (ESE) 1,501 6.6 -12.2°
Drops below altitude 10° 09:19:05 10° 58° (ENE) 2,334 8.5 -11.9°
Sets 09:22:00 0° 45° (NE) 3,329 9.8 -11.7°
